GFSSGP_850_spd_198.txt.gz
Wind_Speed
6 7 9 9 1 2 9 8 15 13 14 8 12 16 13 16 4 11 18 16 16 12 12 12 11 10 10 10 10 10 10 10 10 11 12 11 12 11 11 12 10 10 9 9 10 10 10 9 7
8 5 6 3 2 5 7 13 14 14 19 20 21 21 13 5 11 22 21 19 16 13 8 12 11 11 10 10 10 11 11 11 11 11 11 10 10 11 11 11 9 10 10 10 10 9 9 8 7
15 14 4 2 4 7 5 6 13 24 24 15 10 13 11 10 21 13 20 20 16 12 6 11 12 11 13 11 11 10 11 11 10 9 9 9 10 12 9 11 10 10 9 9 8 6 6 5 4
7 14 3 3 17 13 6 13 23 21 19 10 21 13 11 9 12 15 22 19 15 16 8 12 12 11 10 10 10 10 9 9 9 9 10 9 8 10 7 10 9 9 8 6 5 4 5 4 3
6 9 3 6 18 15 8 22 19 18 17 15 15 12 11 18 19 24 20 19 16 10 8 12 12 10 11 10 11 11 9 10 9 9 9 8 8 8 8 8 7 6 5 4 2 2 2 2 1
15 1 5 3 20 23 21 25 22 8 19 19 16 18 9 19 26 25 20 12 18 11 5 12 11 10 11 10 11 10 10 9 9 9 9 8 7 9 9 8 7 6 4 2 2 2 2 3 4
8 3 7 13 13 11 20 22 21 15 19 15 23 7 13 27 26 15 22 12 18 7 6 7 10 10 10 10 10 9 9 9 8 9 12 13 10 8 8 8 7 6 6 6 6 6 6 7 6
10 4 15 9 10 3 18 15 17 18 15 20 20 9 16 28 23 17 23 16 13 15 9 8 13 11 9 9 10 11 11 11 10 10 8 9 5 5 4 6 15 11 9 10 10 11 10 8 6
12 4 7 7 9 8 19 20 13 17 23 18 13 17 29 31 22 24 18 14 11 14 11 9 10 6 6 7 13 14 12 10 7 5 11 7 9 4 4 9 13 15 11 14 15 11 10 9 6
5 7 12 9 15 15 17 18 14 16 18 11 18 29 35 30 28 25 20 16 16 14 11 14 9 13 7 8 9 9 9 8 8 9 13 12 12 13 15 16 10 10 13 9 10 5 8 12 6
5 4 11 13 14 10 18 13 15 17 11 21 21 31 36 31 27 23 22 20 16 12 16 17 11 13 12 5 8 5 3 5 10 12 6 11 13 16 19 13 11 11 7 6 12 12 5 13 14
6 10 15 12 11 10 14 9 24 26 2 23 23 30 32 29 28 27 21 17 17 16 18 13 11 10 13 9 8 3 4 9 9 9 13 15 9 8 14 11 18 14 7 6 12 7 6 7 5
2 5 8 8 15 12 11 11 20 20 16 23 25 28 29 27 23 23 22 18 18 17 15 16 16 10 13 7 7 5 6 7 7 10 9 11 9 5 4 12 7 15 12 6 6 5 5 8 4
13 20 9 14 11 6 13 9 10 11 18 21 25 26 26 27 25 24 20 21 19 18 17 13 14 15 16 10 11 7 14 6 8 9 8 12 10 16 17 15 9 11 11 16 17 13 12 15 11
21 17 8 11 12 10 10 9 7 13 18 20 24 26 27 26 25 22 23 18 20 17 16 14 14 14 10 8 17 11 9 4 3 8 11 11 8 1 8 9 5 10 10 9 16 13 14 8 12
15 25 8 9 10 11 13 4 18 12 19 21 23 27 29 28 25 21 25 19 18 19 19 15 14 13 11 13 13 6 5 7 5 3 5 7 9 10 7 11 12 12 13 8 11 8 13 16 11
20 8 15 7 17 10 11 15 10 15 19 22 24 28 26 28 28 28 24 24 20 19 21 20 18 14 11 13 16 8 8 10 4 0 3 6 10 10 8 11 11 11 13 12 11 7 10 15 14
5 9 6 13 8 18 14 14 14 23 25 25 25 30 29 28 23 27 26 24 24 20 21 22 16 16 14 13 11 9 7 5 4 2 5 1 5 7 9 10 11 10 9 13 16 13 13 15 18
7 8 11 21 18 22 6 19 24 28 26 28 26 28 34 31 27 26 26 24 22 23 21 24 20 19 15 11 14 10 9 6 5 4 8 2 5 6 9 5 9 7 8 12 17 13 9 11 17
15 7 25 19 14 12 6 18 27 25 27 31 33 31 34 32 34 30 28 27 25 27 25 26 24 18 18 15 14 10 11 10 7 5 5 3 2 5 4 2 4 6 4 10 13 13 12 12 12
20 22 27 22 20 15 9 11 24 26 27 30 28 30 30 35 41 35 35 31 29 28 26 27 26 23 22 14 14 15 15 11 13 8 2 2 2 5 6 3 7 5 8 7 10 13 11 10 12
22 24 25 16 11 12 13 9 3 22 23 24 31 31 33 33 34 35 34 32 32 30 29 26 29 26 22 21 15 16 16 10 6 5 8 2 6 9 1 8 6 7 5 7 7 11 6 8 7
22 24 19 17 10 14 12 9 13 23 23 23 27 35 34 36 36 36 34 34 34 29 29 28 27 28 23 26 18 16 16 11 8 8 9 6 7 7 4 8 13 6 3 8 10 11 9 7 5
22 25 23 15 12 14 18 15 13 12 15 22 25 33 36 35 36 38 35 38 36 32 30 30 30 30 28 24 24 21 16 17 12 11 7 2 7 8 6 13 14 10 6 6 11 9 11 10 11
23 22 14 13 14 13 18 16 6 16 6 16 22 31 34 36 36 40 39 43 38 37 35 33 33 31 31 29 26 26 23 20 18 13 11 6 4 4 11 14 17 7 9 9 8 10 10 12 12
26 23 15 17 15 16 7 10 1 21 24 51 42 33 33 34 35 37 40 40 40 36 36 35 35 33 32 32 29 25 27 24 21 19 15 8 6 5 10 15 13 9 10 8 6 6 11 12 11
25 21 23 25 21 6 8 6 9 21 20 18 26 34 34 34 35 36 36 38 38 38 37 36 35 34 32 32 30 29 27 25 23 16 11 13 16 15 11 16 8 12 13 6 4 6 12 12 10
29 18 20 17 23 11 3 4 13 11 16 17 16 31 36 35 34 36 36 37 36 36 36 36 34 35 31 29 31 30 29 26 23 19 20 15 11 11 16 9 12 16 11 7 5 7 13 12 8
19 21 20 22 17 14 12 6 10 16 20 17 14 34 38 37 34 35 35 38 37 35 36 37 35 34 32 29 29 29 29 27 25 25 22 20 19 19 18 12 12 14 10 9 7 7 12 11 9
26 26 26 16 19 15 8 5 1 17 24 14 15 36 37 35 33 35 34 37 38 36 37 38 36 35 32 30 30 29 28 25 25 24 22 21 20 17 15 12 13 13 10 11 9 7 11 11 7

GFSSGP_850_spd_201.txt.gz
Wind_Speed
5 8 6 5 2 2 5 9 14 11 6 6 17 14 11 6 2 7 20 16 12 16 15 14 12 11 10 10 9 10 11 11 11 12 13 12 11 12 11 10 10 10 10 11 12 11 11 10 9
8 12 4 4 2 4 7 12 16 13 14 28 23 18 10 5 19 22 27 13 12 15 14 14 13 12 11 11 11 11 11 11 11 12 12 11 11 12 10 9 10 10 10 11 11 11 10 8 7
7 15 6 2 3 3 4 16 16 20 23 11 8 17 9 19 15 16 27 17 12 14 12 13 13 12 12 12 12 11 10 10 9 10 11 11 10 12 10 9 10 9 9 9 8 8 7 8 7
6 5 4 3 7 4 3 18 24 17 17 6 18 10 11 14 18 24 20 13 13 11 11 13 14 11 12 12 12 10 11 10 11 11 11 9 9 11 9 9 9 9 8 7 6 7 5 6 5
27 6 4 3 3 7 7 24 25 12 9 14 14 9 8 17 23 23 20 17 12 10 11 13 12 11 12 11 10 10 10 10 11 11 10 11 11 11 9 9 7 6 5 5 4 5 5 6 6
16 6 3 2 7 9 12 25 13 16 20 17 15 14 8 25 28 23 20 17 10 9 12 12 12 12 11 12 12 12 12 12 11 11 11 12 13 11 10 10 10 8 7 5 5 5 5 6 7
12 2 3 6 10 2 13 25 12 21 16 11 26 6 15 29 28 20 20 18 13 8 12 10 11 12 11 11 11 12 12 13 12 11 12 11 10 9 9 8 8 11 11 9 8 7 6 5 4
15 4 8 6 9 6 8 18 21 20 8 23 18 8 14 35 20 21 18 22 12 10 8 13 14 11 11 11 14 15 16 15 10 10 12 4 4 11 5 6 9 9 10 9 7 6 9 10 8
16 4 1 7 7 13 15 14 21 20 22 12 16 25 41 34 24 24 24 19 15 9 11 15 15 12 11 14 17 17 14 10 5 11 13 8 5 7 9 10 6 9 6 11 8 9 11 10 14
5 4 5 8 6 12 21 23 21 16 21 9 19 23 45 32 28 30 23 22 18 15 12 12 10 11 16 15 12 15 12 10 8 11 15 14 16 13 12 16 10 7 14 14 12 12 17 21 10
11 6 7 14 12 25 20 26 25 24 15 30 35 40 36 29 30 29 23 18 16 17 17 15 8 14 11 11 11 8 7 11 15 11 12 10 11 10 14 14 14 8 14 15 11 11 12 14 12
4 20 18 14 14 20 19 21 14 20 21 30 36 44 36 32 31 27 25 22 20 19 22 15 16 15 11 4 6 7 10 9 12 10 9 8 7 12 10 8 14 15 13 11 11 11 12 9 7
3 2 11 31 22 12 26 17 14 20 26 34 36 39 31 33 29 28 20 20 20 20 22 20 14 15 15 9 10 7 9 10 13 10 9 9 5 8 11 9 7 11 12 15 15 14 13 11 9
8 12 11 20 11 17 20 7 18 22 36 36 35 34 31 31 30 29 24 21 19 24 27 23 16 16 17 13 13 10 11 10 11 14 9 13 16 14 15 13 8 10 10 8 14 13 13 12 9
2 4 9 9 13 19 24 6 4 30 35 36 36 34 31 32 25 31 28 22 26 25 22 17 13 17 19 16 15 14 7 6 5 11 13 8 9 15 16 15 11 10 10 10 6 6 11 10 9
3 4 3 4 9 9 10 3 10 25 36 32 33 32 32 30 26 23 20 27 26 23 19 13 15 21 14 20 17 10 12 9 4 5 11 9 8 11 12 12 10 12 10 14 8 3 8 10 12
2 1 3 11 3 2 4 3 14 20 33 32 34 34 35 31 31 27 24 23 23 21 18 12 16 13 18 22 17 11 14 13 4 2 7 5 10 10 11 12 11 12 10 16 12 8 8 15 19
2 6 1 5 8 13 8 8 7 22 30 29 32 37 37 34 33 29 30 22 21 22 19 18 20 13 16 19 17 13 12 11 8 2 4 4 4 7 7 7 8 7 9 13 12 14 10 14 18
3 7 8 6 18 14 12 9 11 24 22 27 28 37 36 37 33 33 30 30 23 22 21 25 25 17 14 23 20 18 13 11 7 5 6 3 4 3 3 3 6 7 7 14 15 15 10 13 15
12 10 4 6 12 7 19 12 17 18 24 31 30 34 36 36 32 36 34 32 33 28 24 27 24 22 16 21 18 12 10 6 8 8 3 3 3 5 5 3 4 4 7 10 14 16 11 16 14
16 9 10 11 6 14 14 14 15 20 21 27 29 31 36 40 37 40 36 37 36 32 30 32 26 24 20 20 19 12 11 13 10 7 6 2 5 8 4 7 6 3 6 8 12 12 7 6 8
16 14 14 18 8 13 11 4 21 20 18 20 29 30 39 39 42 39 38 34 35 34 32 28 32 28 22 22 20 19 16 14 9 9 5 2 6 7 1 5 13 3 3 6 9 10 10 9 5
17 19 18 18 14 13 13 6 11 22 21 22 26 33 30 40 44 44 46 41 35 34 35 29 32 31 27 24 23 22 20 16 4 7 6 6 4 3 3 6 10 9 3 6 9 9 9 10 7
17 18 17 14 10 9 10 6 5 21 28 20 24 34 38 35 43 44 46 46 40 35 37 32 29 32 29 29 24 21 25 20 13 10 10 7 3 7 7 8 10 14 8 6 10 10 9 10 8
19 12 8 5 5 6 10 5 3 6 17 23 18 33 41 41 40 44 45 47 44 36 40 36 31 30 32 30 28 24 24 23 18 17 16 10 6 5 7 8 11 16 9 9 7 8 8 11 9
16 13 7 7 6 8 5 1 1 12 27 37 43 37 41 44 46 46 51 48 47 45 42 39 34 30 32 32 34 29 24 27 24 20 17 11 8 8 4 9 13 15 11 12 8 7 9 9 10
19 13 11 8 15 5 4 2 5 3 9 18 17 22 35 46 48 45 52 47 43 51 43 41 37 33 31 33 33 33 30 27 25 23 19 15 13 12 9 14 17 14 12 14 8 7 8 9 12
11 11 8 7 11 9 3 5 6 11 15 12 6 20 25 47 46 47 53 50 47 50 47 44 40 35 32 32 33 33 31 29 27 25 22 19 14 15 19 20 19 15 14 13 7 8 8 10 11
15 13 10 4 6 6 4 6 8 12 10 11 12 25 36 48 49 47 52 50 50 49 47 47 43 38 35 31 32 33 33 31 29 26 23 20 17 17 18 18 18 16 15 13 6 8 9 10 11
19 11 13 9 8 5 4 5 4 10 3 4 7 15 45 47 48 48 46 48 51 50 46 45 42 40 37 34 31 33 33 32 30 29 25 23 23 21 21 21 19 16 16 12 5 7 9 10 11

GFSSGP_850_spd_207.txt.gz
Wind_Speed
11 11 9 3 1 2 2 1 2 4 3 2 7 4 8 9 3 4 19 13 17 16 15 14 12 12 11 11 13 13 12 13 15 14 14 14 12 12 11 11 12 12 12 12 12 11 10 9 6
11 12 7 3 2 2 1 4 6 4 11 24 16 11 5 4 11 19 19 18 14 15 15 14 12 11 11 12 13 12 13 13 13 14 14 14 12 12 12 12 13 13 13 13 12 11 9 8 5
10 8 3 2 1 1 3 6 6 11 17 5 6 13 5 4 15 24 19 19 16 15 14 13 11 12 13 13 12 12 13 13 14 15 14 14 13 13 13 13 13 13 11 11 10 9 8 5 3
2 3 6 3 5 2 3 8 5 12 5 5 14 9 10 7 19 16 20 18 16 14 12 11 11 12 13 12 12 12 13 15 14 14 13 14 13 13 13 12 11 9 8 8 8 6 4 2 1
3 3 4 4 4 0 1 12 16 10 5 9 3 5 6 14 15 18 18 17 13 14 13 12 11 13 13 12 12 13 15 14 13 13 12 13 13 12 11 10 9 8 6 5 5 4 2 1 4
5 4 4 5 7 4 5 14 10 7 11 9 9 12 5 17 21 20 16 14 12 12 13 11 12 13 12 12 13 14 14 13 13 13 13 12 13 12 10 9 8 6 5 4 3 3 2 3 8
4 4 2 3 5 3 6 8 5 6 11 4 20 4 12 24 22 18 17 13 12 12 11 12 12 14 14 14 15 14 14 13 12 10 10 10 9 10 10 9 8 6 5 4 2 1 0 4 7
4 3 6 5 3 4 3 4 7 9 4 20 19 6 10 29 24 19 16 13 13 12 11 13 14 15 15 15 15 15 14 12 10 9 7 9 9 9 9 7 7 8 9 7 6 2 5 6 7
4 3 5 7 4 4 10 5 7 7 19 7 15 12 24 31 24 22 19 15 15 14 13 15 16 17 17 16 16 13 11 12 16 14 15 13 12 11 11 12 11 9 9 9 6 1 5 10 9
3 3 7 18 12 4 12 10 16 7 16 4 15 13 35 31 27 24 22 19 15 16 17 17 18 20 18 15 11 11 10 12 15 16 15 14 12 14 13 12 11 10 11 9 9 7 5 7 6
6 4 7 13 25 13 10 13 17 12 9 11 30 34 40 34 28 25 22 17 15 20 18 18 22 19 17 13 14 14 12 13 12 11 13 16 15 14 14 12 10 9 8 9 9 5 5 4 4
4 17 11 13 22 16 9 11 16 17 9 19 25 41 43 35 30 27 25 20 19 20 17 23 21 17 16 12 11 9 10 9 11 12 12 11 11 12 14 13 12 13 9 8 5 3 4 5 3
6 4 11 12 26 22 15 17 11 14 5 15 29 40 40 35 31 27 23 19 20 20 21 23 20 15 14 12 13 10 7 8 8 10 10 10 10 11 12 11 9 10 9 8 6 4 6 4 3
7 8 4 19 20 13 12 6 10 5 12 24 36 37 37 35 33 29 27 22 21 21 24 21 17 16 13 13 13 11 10 9 9 11 13 11 9 7 8 9 10 9 9 4 5 4 4 3 2
9 4 6 16 8 4 11 3 2 16 22 29 30 31 33 35 33 31 28 24 22 23 23 20 17 17 10 14 13 10 9 10 10 11 9 9 9 12 9 8 8 8 11 6 2 2 2 0 2
5 5 4 3 9 8 5 5 10 22 27 25 26 26 30 34 34 32 28 23 23 23 23 19 18 16 12 14 14 10 10 8 10 10 9 9 8 7 6 5 7 7 11 7 4 4 1 4 5
6 3 2 3 9 7 2 2 14 25 25 24 25 27 28 34 33 32 29 28 26 25 23 22 19 17 15 14 15 12 10 8 7 9 7 6 6 5 4 2 4 6 8 7 5 2 3 4 7
1 2 1 6 4 4 7 6 15 26 24 25 29 27 31 34 35 33 30 27 26 26 28 24 22 20 19 19 15 13 11 9 8 6 5 2 1 0 1 2 3 5 6 7 5 4 6 9 8
2 1 6 4 2 1 3 2 15 27 22 22 27 29 34 36 35 33 30 28 27 26 33 28 23 23 25 25 19 16 13 9 8 6 2 3 2 5 4 3 6 5 5 8 7 6 7 12 15
4 4 7 5 5 6 6 8 9 22 30 36 35 33 34 36 34 34 31 30 27 33 33 27 21 24 24 26 21 18 13 10 8 6 2 2 2 2 1 3 6 4 5 7 7 3 4 8 10
4 6 5 7 2 4 2 6 6 12 18 29 32 37 38 44 39 36 34 31 31 38 35 26 22 23 28 26 23 22 18 14 10 10 4 1 1 2 4 6 8 5 5 7 9 6 4 2 5
5 8 5 6 1 4 4 5 4 6 19 23 31 34 36 39 41 41 38 36 39 39 33 27 23 24 29 27 24 24 22 17 13 8 5 3 2 2 2 2 6 9 6 7 9 8 6 5 1
9 5 9 7 5 5 2 3 6 4 8 16 26 36 40 43 45 45 44 44 39 38 37 31 25 27 25 28 28 26 24 18 13 11 11 9 6 5 3 5 6 8 8 7 8 7 5 5 2
8 4 3 2 3 1 18 6 17 6 9 15 25 36 41 43 47 44 46 46 43 39 38 35 30 27 27 28 31 30 26 20 17 15 13 12 9 8 5 9 9 7 8 8 9 8 7 6 4
4 6 2 3 1 9 7 6 17 10 14 15 24 39 43 44 46 49 48 50 48 46 42 40 35 31 29 29 32 32 30 24 21 18 16 15 11 9 7 9 9 7 8 7 9 5 5 5 5
8 9 6 7 4 3 3 7 10 9 10 20 33 43 41 42 46 50 53 53 52 49 47 44 40 35 32 32 31 32 31 28 25 23 19 17 14 11 11 10 6 7 8 8 10 6 4 5 5
6 5 8 5 1 2 4 8 11 4 5 10 23 32 35 38 41 45 48 53 54 51 49 49 44 39 34 33 33 33 32 30 30 27 24 20 17 15 15 11 8 8 9 10 10 8 5 5 4
9 7 4 2 6 5 5 5 6 5 7 6 14 25 33 39 39 41 44 51 52 52 51 49 47 42 36 33 32 35 34 32 30 31 29 25 20 18 16 16 14 13 11 11 12 10 6 6 6
1 3 3 4 6 8 4 6 8 12 8 14 18 33 40 39 44 46 51 52 53 53 53 51 49 45 41 36 34 34 37 34 32 32 33 30 25 22 21 20 19 17 14 12 14 12 9 8 8
9 10 9 6 6 2 3 9 6 11 9 16 22 26 31 36 47 50 50 49 52 54 54 54 51 48 44 38 36 34 35 36 35 33 33 32 30 27 24 23 22 18 17 15 16 13 11 11 10

GFSSGP_850_spd_210.txt.gz
Wind_Speed
11 10 7 1 1 0 2 3 2 4 4 4 16 3 8 6 2 3 21 16 16 17 14 12 11 9 9 10 10 9 10 11 11 12 11 12 11 11 11 9 10 10 9 9 9 7 5 5 6
11 10 3 2 2 1 2 3 7 4 8 21 16 10 6 4 6 17 19 20 16 17 15 13 11 9 10 11 11 11 11 10 10 12 12 11 10 10 10 9 10 11 10 9 7 5 4 4 4
12 6 2 2 1 2 2 4 6 15 14 7 6 10 4 3 11 21 23 20 17 15 15 13 10 11 11 12 11 11 11 11 13 13 12 12 11 11 11 10 10 10 9 8 6 4 2 2 3
7 3 3 2 5 2 3 8 13 12 11 7 15 8 7 7 15 16 21 18 16 14 13 12 12 13 12 12 11 11 12 12 12 12 12 12 12 12 11 10 8 7 6 6 3 2 0 4 5
2 2 3 3 5 3 6 12 16 5 7 9 3 4 6 15 13 18 20 17 15 14 12 12 12 12 12 12 12 13 12 12 12 11 11 11 10 9 8 7 5 5 5 4 1 0 3 5 5
2 2 4 3 5 5 3 13 12 6 8 10 10 9 6 15 17 18 17 15 14 12 13 12 13 12 11 12 12 12 11 11 12 11 11 10 8 7 7 4 4 3 3 1 1 2 4 6 7
1 3 4 3 3 2 5 13 6 8 8 3 19 5 9 20 19 17 16 15 14 12 11 12 12 12 13 13 12 12 12 12 9 7 7 6 7 5 5 5 4 4 4 2 2 2 4 4 7
1 2 0 3 1 1 6 4 7 9 5 15 15 7 9 27 22 19 17 15 15 13 11 12 14 14 14 14 14 12 11 9 7 5 4 4 5 4 4 4 4 4 4 4 5 6 6 6 7
2 3 2 4 7 4 9 5 5 7 17 6 11 15 22 31 25 22 18 16 16 15 14 14 14 14 13 14 14 13 10 12 11 11 9 9 7 6 6 6 7 7 7 7 5 8 9 10 12
2 1 5 6 6 3 13 12 12 5 11 4 10 10 35 31 27 23 20 18 18 16 16 16 16 15 15 14 11 10 10 13 13 12 10 9 9 7 8 7 6 8 9 10 10 9 8 8 11
4 4 5 4 12 12 11 9 10 13 4 11 25 28 38 32 27 24 19 15 15 17 17 18 19 17 15 13 13 11 11 11 11 12 13 12 11 10 10 9 9 8 8 9 8 8 7 6 7
4 15 9 6 7 8 10 11 5 13 4 13 22 31 37 34 31 26 22 17 19 19 19 21 20 17 13 13 13 11 11 11 11 10 10 11 11 11 11 11 12 10 9 7 6 6 6 5 5
3 5 17 14 12 7 9 5 1 8 0 10 23 34 35 32 29 24 20 18 22 20 21 23 19 17 13 13 10 8 9 10 10 12 9 10 11 11 9 10 8 8 8 9 8 6 6 4 2
3 5 2 12 11 9 7 2 7 2 8 17 25 35 35 33 28 26 23 20 21 21 24 22 19 16 14 12 11 8 9 11 12 12 12 9 6 6 6 8 8 8 7 5 6 3 3 2 2
4 4 7 11 7 4 13 2 3 10 16 25 28 30 33 31 27 25 24 21 23 22 25 21 18 15 13 14 12 9 9 10 14 11 9 8 7 7 6 7 6 10 10 4 1 4 5 4 3
4 4 4 2 4 7 8 6 3 18 25 25 28 28 30 29 27 25 24 22 22 25 25 20 18 15 14 14 12 10 9 11 11 8 7 6 4 3 4 6 7 10 9 9 2 4 7 8 5
6 3 2 1 7 7 5 5 7 22 25 24 26 30 34 30 29 27 26 25 23 25 24 20 19 16 13 14 12 10 9 9 10 10 9 4 4 3 4 6 7 8 9 9 5 4 7 7 3
3 2 1 3 2 3 5 3 5 18 21 25 28 29 36 36 35 32 29 26 24 24 22 19 18 16 15 13 13 12 9 9 10 9 6 4 2 2 5 6 7 7 9 10 6 5 6 6 2
4 2 3 3 5 5 6 5 13 22 17 19 24 28 31 40 35 34 32 30 27 27 25 21 21 19 18 16 17 15 11 10 9 7 4 4 1 2 5 4 6 6 7 9 6 6 3 3 4
3 1 5 5 4 5 4 10 8 16 23 33 32 30 33 34 35 35 35 32 30 29 28 25 23 22 20 21 18 16 13 10 10 6 3 2 1 3 2 5 5 4 7 8 7 4 1 5 3
3 4 3 5 4 2 3 6 4 10 16 22 24 32 35 41 41 41 39 38 34 32 27 28 25 24 22 25 23 20 17 13 11 9 4 2 2 2 3 7 10 6 5 6 7 5 3 3 7
5 7 3 4 3 3 3 5 5 7 17 15 24 30 33 38 43 45 44 41 38 33 29 30 25 23 24 26 27 24 20 16 12 7 5 4 2 1 1 3 6 9 7 7 8 7 5 1 3
9 4 5 3 4 2 3 0 7 5 5 14 26 34 37 43 45 48 48 45 39 31 34 32 27 25 24 28 29 26 24 20 15 10 9 5 4 3 4 5 6 9 9 8 7 7 7 5 0
4 3 6 5 4 1 7 6 7 5 9 9 24 35 39 42 46 48 48 45 40 32 36 35 31 26 25 30 30 27 26 23 19 15 11 7 8 7 6 7 9 7 9 7 8 6 6 5 3
6 6 2 3 1 5 2 5 13 8 11 11 18 36 42 43 44 45 49 48 43 40 39 38 35 31 29 29 32 30 28 25 21 18 13 9 9 8 7 8 10 7 8 8 9 7 6 6 5
6 9 6 6 3 4 3 6 7 10 17 15 21 36 39 42 46 48 51 51 48 44 42 42 39 35 32 31 30 32 30 28 24 20 17 12 12 11 10 9 8 6 7 8 9 9 6 7 6
4 4 6 5 1 2 4 7 9 9 9 5 9 21 31 39 43 49 50 49 51 48 48 46 42 38 35 32 32 31 31 31 29 24 21 19 15 14 14 12 8 8 8 9 10 10 7 7 7
8 8 3 3 6 5 5 5 6 7 7 2 5 17 29 36 37 40 49 50 50 51 47 48 45 41 38 35 32 32 31 30 30 28 26 24 21 18 15 12 11 12 12 10 10 10 10 9 9
2 3 5 5 5 6 2 8 7 10 11 8 8 25 31 38 41 43 48 51 51 49 50 48 48 46 42 39 35 33 32 32 30 30 29 28 25 23 20 17 16 15 15 13 12 11 12 11 11
5 10 10 6 6 3 3 13 5 9 5 7 16 26 29 35 37 39 41 44 49 51 51 51 51 48 47 42 39 35 32 31 34 32 31 28 28 27 24 22 22 20 18 16 14 14 14 14 13